Jackson, MN

7:29 AM CDT on July 28, 2017 (GMT -0500)
Jackson Municipal

Weather History for KMJQ - July, 2013

Change the Weather History Date:

Tuesday, July 16, 2013

  Actual Average Record
Temperature  
Mean Temperature 80 °F -  
Max Temperature 89 °F 79 °F 95 °F (2006)
Min Temperature 71 °F 60 °F 46 °F (2014)
Cooling Degree Days 15    
Growing Degree Days 30 (Base 50)    
Moisture  
Dew Point 64 °F    
Average Humidity 59    
Maximum Humidity 88    
Minimum Humidity 36    
Precipitation  
Precipitation 0.00 in - - ()
Sea Level Pressure  
Sea Level Pressure 30.24 in    
Wind  
Wind Speed 8 mph (SSW)    
Max Wind Speed 15 mph    
Max Gust Speed 20 mph    
Visibility 10 miles    
Events      
Averages and records for this station are not official NWS values.
T = Trace of Precipitation, MM = Missing Value Source: NWS Daily Summary

Daily Weather History Graph

Daily Weather History Graph

Search for Another Location

Airport or City:

Trip Planner

Search our weather history database for the weather conditions in past years. The results will help you decide how hot, cold, wet, or windy it might be!

Date:

Astronomy

Jul. 16, 2013 Rise Set
Actual Time 5:53 AM CDT 8:58 PM CDT
Civil Twilight 5:18 AM CDT 9:32 PM CDT
Nautical Twilight 4:34 AM CDT 10:16 PM CDT
Astronomical Twilight 3:41 AM CDT 11:09 PM CDT
Moon 2:36 PM CDT (7/16) 12:29 AM CDT (7/16)
Length of Visible Light 16h 13m
Length of Day
15h 04m
First Quarter, 56% of the Moon is Illuminated
Jul 16
First Quarter
Jul 22
Full
Jul 29
Last Quarter
Aug 6
New
Aug 14
First Quarter

Hourly Weather History & Observations

Time (CDT) Temp. Heat Index Dew Point Humidity Pressure Visibility Wind Dir Wind Speed Gust Speed Precip Events Conditions
12:14 AM 77.0 °F - 64.4 °F 65% 30.20 in 10.0 mi South 6.9 mph - N/A   Clear
12:34 AM 77.0 °F - 66.2 °F 69% 30.20 in 10.0 mi South 5.8 mph - N/A   Clear
12:54 AM 75.2 °F - 66.2 °F 73% 30.21 in 10.0 mi SSE 6.9 mph - N/A   Clear
1:13 AM 75.2 °F - 66.2 °F 73% 30.21 in 10.0 mi South 6.9 mph - N/A   Scattered Clouds
1:34 AM 75.2 °F - 66.2 °F 73% 30.21 in 10.0 mi South 6.9 mph - N/A   Scattered Clouds
1:54 AM 73.4 °F - 66.2 °F 78% 30.21 in 10.0 mi South 8.1 mph - N/A   Clear
2:13 AM 73.4 °F - 66.2 °F 78% 30.21 in 10.0 mi South 6.9 mph - N/A   Clear
2:34 AM 73.4 °F - 66.2 °F 78% 30.21 in 10.0 mi South 5.8 mph - N/A   Clear
2:54 AM 73.4 °F - 66.2 °F 78% 30.21 in 10.0 mi South 5.8 mph - N/A   Clear
3:13 AM 73.4 °F - 66.2 °F 78% 30.21 in 10.0 mi South 6.9 mph - N/A   Clear
3:34 AM 73.4 °F - 68.0 °F 83% 30.21 in 10.0 mi South 8.1 mph - N/A   Clear
3:52 AM 73.4 °F - 68.0 °F 83% 30.21 in 10.0 mi South 6.9 mph - N/A   Clear
4:14 AM 71.6 °F - 68.0 °F 88% 30.21 in 10.0 mi South 5.8 mph - N/A   Clear
4:34 AM 71.6 °F - 68.0 °F 88% 30.21 in 10.0 mi South 5.8 mph - N/A   Clear
4:53 AM 71.6 °F - 68.0 °F 88% 30.21 in 10.0 mi South 5.8 mph - N/A   Clear
5:14 AM 71.6 °F - 66.2 °F 83% 30.21 in 10.0 mi South 5.8 mph - N/A   Clear
5:34 AM 71.6 °F - 66.2 °F 83% 30.21 in 10.0 mi South 5.8 mph - N/A   Clear
5:53 AM 71.6 °F - 66.2 °F 83% 30.22 in 7.0 mi South 5.8 mph - N/A   Clear
6:14 AM 71.6 °F - 66.2 °F 83% 30.22 in 7.0 mi South 6.9 mph - N/A   Clear
6:34 AM 71.6 °F - 66.2 °F 83% 30.22 in 7.0 mi South 6.9 mph - N/A   Clear
6:53 AM 71.6 °F - 66.2 °F 83% 30.23 in 7.0 mi South 8.1 mph - N/A   Clear
7:14 AM 71.6 °F - 66.2 °F 83% 30.23 in 7.0 mi South 8.1 mph - N/A   Clear
7:34 AM 73.4 °F - 68.0 °F 83% 30.24 in 10.0 mi South 8.1 mph - N/A   Clear
7:53 AM 75.2 °F - 68.0 °F 78% 30.24 in 10.0 mi South 9.2 mph - N/A   Clear
8:14 AM 77.0 °F - 68.0 °F 74% 30.25 in 10.0 mi South 8.1 mph - N/A   Clear
8:34 AM 78.8 °F - 68.0 °F 69% 30.25 in 10.0 mi SSW 8.1 mph - N/A   Clear
8:53 AM 78.8 °F - 68.0 °F 69% 30.26 in 10.0 mi SSW 11.5 mph - N/A   Clear
9:14 AM 80.6 °F 83.2 °F 68.0 °F 65% 30.26 in 10.0 mi SSW 10.4 mph - N/A   Clear
9:34 AM 80.6 °F 82.7 °F 66.2 °F 61% 30.26 in 10.0 mi SW 9.2 mph - N/A   Clear
9:53 AM 82.4 °F 83.9 °F 64.4 °F 54% 30.26 in 10.0 mi SW 10.4 mph - N/A   Clear
10:14 AM 82.4 °F 83.9 °F 64.4 °F 54% 30.26 in 10.0 mi SSW 9.2 mph - N/A   Clear
10:34 AM 82.4 °F 83.9 °F 64.4 °F 54% 30.26 in 10.0 mi South 9.2 mph - N/A   Clear
10:53 AM 84.2 °F 85.0 °F 62.6 °F 48% 30.26 in 10.0 mi SW 9.2 mph 16.1 mph N/A   Clear
11:14 AM 86.0 °F 86.6 °F 62.6 °F 45% 30.26 in 10.0 mi SW 10.4 mph - N/A   Clear
11:33 AM 86.0 °F 86.6 °F 62.6 °F 45% 30.26 in 10.0 mi SW 10.4 mph - N/A   Clear
11:54 AM 87.8 °F 88.5 °F 62.6 °F 43% 30.27 in 10.0 mi SSW 15.0 mph 19.6 mph N/A   Clear
12:14 PM 87.8 °F 88.5 °F 62.6 °F 43% 30.26 in 10.0 mi SSW 12.7 mph - N/A   Clear
12:34 PM 87.8 °F 88.5 °F 62.6 °F 43% 30.26 in 10.0 mi South 12.7 mph - N/A   Clear
12:53 PM 87.8 °F 87.6 °F 60.8 °F 40% 30.26 in 10.0 mi SW 11.5 mph 17.3 mph N/A   Clear
1:13 PM 87.8 °F 88.5 °F 62.6 °F 43% 30.26 in 10.0 mi SSW 13.8 mph 19.6 mph N/A   Scattered Clouds
1:34 PM 87.8 °F 88.5 °F 62.6 °F 43% 30.26 in 10.0 mi SSW 11.5 mph 17.3 mph N/A   Clear
1:54 PM 87.8 °F 87.6 °F 60.8 °F 40% 30.26 in 10.0 mi SSW 13.8 mph 17.3 mph N/A   Scattered Clouds
2:13 PM 89.6 °F 90.1 °F 62.6 °F 40% 30.26 in 10.0 mi WSW 10.4 mph 16.1 mph N/A   Scattered Clouds
2:34 PM 87.8 °F 87.6 °F 60.8 °F 40% 30.26 in 10.0 mi SSW 10.4 mph - N/A   Scattered Clouds
2:53 PM 89.6 °F 89.5 °F 60.8 °F 38% 30.26 in 10.0 mi SW 15.0 mph 18.4 mph N/A   Scattered Clouds
3:14 PM 89.6 °F 89.5 °F 60.8 °F 38% 30.25 in 10.0 mi SSW 10.4 mph 16.1 mph N/A   Scattered Clouds
3:34 PM 89.6 °F 88.9 °F 59.0 °F 36% 30.25 in 10.0 mi SW 10.4 mph 19.6 mph N/A   Scattered Clouds
3:53 PM 89.6 °F 89.5 °F 60.8 °F 38% 30.25 in 10.0 mi SSW 12.7 mph 19.6 mph N/A   Scattered Clouds
4:14 PM 89.6 °F 89.5 °F 60.8 °F 38% 30.25 in 10.0 mi SW 9.2 mph 18.4 mph N/A   Clear
4:34 PM 89.6 °F 88.9 °F 59.0 °F 36% 30.25 in 10.0 mi SW 8.1 mph - N/A   Clear
4:53 PM 89.6 °F 89.5 °F 60.8 °F 38% 30.25 in 10.0 mi SW 8.1 mph 16.1 mph N/A   Clear
5:14 PM 89.6 °F 88.9 °F 59.0 °F 36% 30.25 in 10.0 mi SW 10.4 mph - N/A   Clear
5:34 PM 89.6 °F 88.9 °F 59.0 °F 36% 30.24 in 10.0 mi SW 10.4 mph 16.1 mph N/A   Clear
5:53 PM 89.6 °F 88.9 °F 59.0 °F 36% 30.24 in 10.0 mi SW 9.2 mph 17.3 mph N/A   Clear
6:14 PM 87.8 °F 87.1 °F 59.0 °F 38% 30.23 in 10.0 mi SW 8.1 mph - N/A   Clear
6:34 PM 87.8 °F 87.1 °F 59.0 °F 38% 30.23 in 10.0 mi SSW 9.2 mph - N/A   Clear
6:53 PM 87.8 °F 87.6 °F 60.8 °F 40% 30.23 in 10.0 mi SW 8.1 mph - N/A   Clear
7:14 PM 87.8 °F 87.6 °F 60.8 °F 40% 30.23 in 10.0 mi SW 10.4 mph - N/A   Clear
7:34 PM 86.0 °F 86.1 °F 60.8 °F 43% 30.23 in 10.0 mi SW 9.2 mph - N/A   Clear
7:53 PM 86.0 °F 86.6 °F 62.6 °F 45% 30.24 in 10.0 mi SW 6.9 mph - N/A   Clear
8:14 PM 84.2 °F 85.0 °F 62.6 °F 48% 30.24 in 10.0 mi SW 5.8 mph - N/A   Clear
8:34 PM 82.4 °F 83.9 °F 64.4 °F 54% 30.24 in 10.0 mi SW 4.6 mph - N/A   Clear
8:53 PM 82.4 °F 83.9 °F 64.4 °F 54% 30.24 in 10.0 mi SW 3.5 mph - N/A   Clear
9:14 PM 80.6 °F 82.3 °F 64.4 °F 58% 30.25 in 10.0 mi SW 3.5 mph - N/A   Clear
9:34 PM 78.8 °F - 64.4 °F 61% 30.25 in 10.0 mi SSW 4.6 mph - N/A   Clear
9:54 PM 78.8 °F - 64.4 °F 61% 30.26 in 10.0 mi SSW 4.6 mph - N/A   Clear
10:14 PM 78.8 °F - 64.4 °F 61% 30.26 in 10.0 mi South 3.5 mph - N/A   Clear
10:33 PM 77.0 °F - 64.4 °F 65% 30.27 in 10.0 mi SSW 3.5 mph - N/A   Clear
10:54 PM 77.0 °F - 64.4 °F 65% 30.27 in 10.0 mi South 4.6 mph - N/A   Clear
11:14 PM 77.0 °F - 64.4 °F 65% 30.27 in 10.0 mi South 4.6 mph - N/A   Clear
11:33 PM 75.2 °F - 64.4 °F 69% 30.27 in 10.0 mi South 4.6 mph - N/A   Clear
11:54 PM 73.4 °F - 66.2 °F 78% 30.27 in 10.0 mi South 4.6 mph - N/A   Clear